York, NE

5:31 AM CDT on October 21, 2019 (GMT -0500)
York Municipal

Weather History for KJYR - August, 2019

Change the Weather History Date:

Monday, August 19, 2019

  Actual Average Record
Temperature  
Mean Temperature 72 °F -  
Max Temperature 84 °F 87 °F 101 °F (1962)
Min Temperature 59 °F 63 °F 44 °F (2004)
Cooling Degree Days 6    
Growing Degree Days 22 (Base 50)    
Moisture  
Dew Point 70 °F    
Average Humidity 89    
Maximum Humidity 100    
Minimum Humidity 79    
Precipitation  
Precipitation 0.00 in - - ()
Sea Level Pressure  
Sea Level Pressure 29.97 in    
Wind  
Wind Speed 4 mph (SE)    
Max Wind Speed 14 mph    
Max Gust Speed 16 mph    
Visibility 9 miles    
Events Fog , Rain    
Averages and records for this station are not official NWS values.
T = Trace of Precipitation, MM = Missing Value Source: NWS Daily Summary

Daily Weather History Graph

Daily Weather History Graph

Search for Another Location

Airport or City:

Astronomy

Aug. 19, 2019 Rise Set
Actual Time 6:44 AM CDT 8:23 PM CDT
Civil Twilight 6:15 AM CDT 8:52 PM CDT
Nautical Twilight 5:39 AM CDT 9:27 PM CDT
Astronomical Twilight 5:02 AM CDT 10:04 PM CDT
Moon 10:43 PM CDT (8/19) 10:28 AM CDT (8/19)
Length of Visible Light 14h 37m
Length of Day
13h 39m
Waning Gibbous, 85% of the Moon is Illuminated
Aug 19
Waning Gibbous
Aug 23
Last Quarter
Aug 30
New
Sep 5
First Quarter
Sep 13
Full

Hourly Weather History & Observations

Time (CDT) Temp. Heat Index Dew Point Humidity Pressure Visibility Wind Dir Wind Speed Gust Speed Precip Events Conditions
12:15 AM 62.6 °F - 62.6 °F 100% 29.99 in 10.0 mi Calm Calm - N/A   Clear
12:35 AM 62.6 °F - 62.6 °F 100% 29.99 in 10.0 mi Calm Calm - N/A   Clear
12:55 AM 62.6 °F - 62.6 °F 100% 29.99 in 10.0 mi Calm Calm - N/A   Clear
1:15 AM 62.6 °F - 60.8 °F 94% 29.99 in 10.0 mi Calm Calm - N/A   Clear
1:35 AM 62.6 °F - 60.8 °F 94% 29.99 in 10.0 mi Calm Calm - N/A   Clear
1:55 AM 60.8 °F - 60.8 °F 100% 29.99 in 10.0 mi Calm Calm - N/A   Clear
2:15 AM 60.8 °F - 60.8 °F 100% 29.99 in 10.0 mi Calm Calm - N/A   Clear
2:35 AM 62.6 °F - 60.8 °F 94% 29.99 in 10.0 mi Calm Calm - N/A   Scattered Clouds
2:55 AM 62.6 °F - 60.8 °F 94% 30.00 in 8.0 mi Calm Calm - N/A   Mostly Cloudy
3:15 AM 60.8 °F - 60.8 °F 100% 30.00 in 2.5 mi Calm Calm - N/A   Partly Cloudy
3:35 AM 60.8 °F - 59.0 °F 94% 30.00 in 0.5 mi Calm Calm - N/A Fog Fog
3:55 AM 60.8 °F - 59.0 °F 94% 30.00 in 0.5 mi Calm Calm - N/A Fog Fog
4:15 AM 60.8 °F - 59.0 °F 94% 30.00 in 0.8 mi Calm Calm - N/A   Overcast
4:35 AM 60.8 °F - 60.8 °F 100% 30.00 in 0.8 mi Calm Calm - N/A   Mostly Cloudy
5:00 AM 62.6 °F - 62.6 °F 100% 30.01 in 9.0 mi Calm Calm - N/A   Partly Cloudy
5:15 AM 62.6 °F - 62.6 °F 100% 30.01 in 4.0 mi Calm Calm - N/A   Clear
5:35 AM 62.6 °F - 60.8 °F 94% 30.01 in 1.8 mi Calm Calm - N/A   Clear
5:55 AM 60.8 °F - 60.8 °F 100% 30.01 in 8.0 mi Calm Calm - N/A   Clear
6:15 AM 59.0 °F - 59.0 °F 100% 30.01 in 8.0 mi Calm Calm - N/A   Clear
6:35 AM 59.0 °F - 59.0 °F 100% 30.02 in 10.0 mi Calm Calm - N/A   Partly Cloudy
6:55 AM 60.8 °F - 59.0 °F 94% 30.02 in 9.0 mi Calm Calm - N/A   Clear
7:15 AM 60.8 °F - 60.8 °F 100% 30.02 in 8.0 mi Calm Calm - N/A   Clear
7:35 AM 62.6 °F - 62.6 °F 100% 30.02 in 4.0 mi Calm Calm - N/A   Clear
7:55 AM 64.4 °F - 64.4 °F 100% 30.02 in 2.5 mi ESE 5.8 mph - N/A   Clear
8:15 AM 66.2 °F - 66.2 °F 100% 30.02 in 5.0 mi Calm Calm - N/A   Clear
8:35 AM 68.0 °F - 66.2 °F 94% 30.01 in 5.0 mi ESE 6.9 mph - N/A   Clear
8:55 AM 68.0 °F - 68.0 °F 100% 30.01 in 7.0 mi ESE 8.1 mph - N/A   Clear
9:15 AM 69.8 °F - 68.0 °F 94% 30.01 in 10.0 mi SE 9.2 mph - N/A   Clear
9:35 AM 71.6 °F - 68.0 °F 88% 30.02 in 10.0 mi SE 8.1 mph - N/A   Clear
9:55 AM 73.4 °F - 68.0 °F 83% 30.02 in 10.0 mi SE 8.1 mph - N/A   Clear
10:15 AM 73.4 °F - 69.8 °F 88% 30.02 in 10.0 mi SE 9.2 mph - N/A   Clear
10:35 AM 75.2 °F - 69.8 °F 83% 30.01 in 10.0 mi ESE 8.1 mph - N/A   Clear
10:55 AM 75.2 °F - 71.6 °F 89% 30.01 in 10.0 mi ESE 10.4 mph - N/A   Clear
11:15 AM 77.0 °F - 71.6 °F 83% 30.01 in 10.0 mi SE 9.2 mph - N/A   Clear
11:35 AM 77.0 °F - 71.6 °F 83% 30.01 in 10.0 mi ESE 10.4 mph - N/A   Clear
11:55 AM 78.8 °F - 73.4 °F 83% 30.01 in 10.0 mi SSE 9.2 mph - N/A   Clear
12:15 PM 80.6 °F 85.4 °F 73.4 °F 79% 30.00 in 10.0 mi SE 11.5 mph - N/A   Clear
12:35 PM 80.6 °F 85.4 °F 73.4 °F 79% 30.00 in 10.0 mi SE 11.5 mph - N/A   Clear
12:55 PM 80.6 °F 85.4 °F 73.4 °F 79% 29.99 in 10.0 mi SSE 10.4 mph - N/A   Clear
1:15 PM 82.4 °F 89.5 °F 75.2 °F 79% 29.99 in 10.0 mi SE 8.1 mph - N/A   Clear
1:35 PM 82.4 °F 89.5 °F 75.2 °F 79% 29.99 in 10.0 mi SE 10.4 mph - N/A   Scattered Clouds
1:55 PM 82.4 °F 89.5 °F 75.2 °F 79% 29.97 in 10.0 mi SE 11.5 mph - N/A   Scattered Clouds
2:20 PM 82.4 °F 89.5 °F 75.2 °F 79% 29.96 in 10.0 mi SSE 10.4 mph - N/A   Mostly Cloudy
2:35 PM 82.4 °F 89.5 °F 75.2 °F 79% 29.96 in 10.0 mi SSE 11.5 mph - N/A   Overcast
2:55 PM 84.2 °F 94.1 °F 77.0 °F 79% 29.96 in 10.0 mi SE 10.4 mph - N/A   Overcast
3:15 PM 84.2 °F 94.1 °F 77.0 °F 79% 29.96 in 10.0 mi SE 10.4 mph - N/A   Overcast
3:35 PM 84.2 °F 94.1 °F 77.0 °F 79% 29.95 in 10.0 mi SSE 10.4 mph 16.1 mph N/A   Overcast
3:55 PM 84.2 °F 94.1 °F 77.0 °F 79% 29.94 in 10.0 mi SSE 11.5 mph - N/A   Mostly Cloudy
4:15 PM 84.2 °F 94.1 °F 77.0 °F 79% 29.93 in 10.0 mi SE 13.8 mph - N/A   Mostly Cloudy
4:35 PM 84.2 °F 94.1 °F 77.0 °F 79% 29.93 in 10.0 mi SE 12.7 mph - N/A   Mostly Cloudy
4:55 PM 84.2 °F 94.1 °F 77.0 °F 79% 29.93 in 10.0 mi SSE 9.2 mph - N/A   Overcast
5:15 PM 84.2 °F 94.1 °F 77.0 °F 79% 29.93 in 10.0 mi SE 10.4 mph - N/A   Scattered Clouds
5:35 PM 84.2 °F 94.1 °F 77.0 °F 79% 29.93 in 10.0 mi SE 10.4 mph - N/A   Scattered Clouds
5:55 PM 84.2 °F 94.1 °F 77.0 °F 79% 29.92 in 10.0 mi SE 11.5 mph - N/A   Mostly Cloudy
6:15 PM 84.2 °F 94.1 °F 77.0 °F 79% 29.92 in 10.0 mi SE 9.2 mph - N/A   Mostly Cloudy
6:35 PM 84.2 °F 94.1 °F 77.0 °F 79% 29.91 in 10.0 mi SE 10.4 mph - N/A   Partly Cloudy
6:55 PM 84.2 °F 96.1 °F 78.8 °F 84% 29.91 in 10.0 mi SE 12.7 mph - N/A   Partly Cloudy
7:15 PM 84.2 °F 94.1 °F 77.0 °F 79% 29.90 in 10.0 mi SE 10.4 mph - N/A   Partly Cloudy
7:35 PM 82.4 °F 90.9 °F 77.0 °F 84% 29.90 in 10.0 mi SE 9.2 mph - N/A   Clear
7:55 PM 82.4 °F 90.9 °F 77.0 °F 84% 29.90 in 10.0 mi SE 9.2 mph - N/A   Clear
8:15 PM 82.4 °F 90.9 °F 77.0 °F 84% 29.90 in 10.0 mi SE 10.4 mph - N/A   Clear
8:35 PM 80.6 °F 87.1 °F 77.0 °F 89% 29.90 in 10.0 mi SSE 10.4 mph - N/A   Clear
8:55 PM 80.6 °F 87.1 °F 77.0 °F 89% 29.91 in 10.0 mi SSE 6.9 mph - N/A   Clear
9:15 PM 80.6 °F 87.1 °F 77.0 °F 89% 29.92 in 10.0 mi SE 6.9 mph - N/A Rain Light Rain
9:35 PM 80.6 °F 87.1 °F 77.0 °F 89% 29.94 in 10.0 mi SE 4.6 mph - N/A   Clear
9:55 PM 80.6 °F 87.1 °F 77.0 °F 89% 29.94 in 10.0 mi ESE 4.6 mph - N/A   Clear
10:15 PM 78.8 °F - 77.0 °F 94% 29.94 in 10.0 mi SE 8.1 mph - N/A   Clear
10:35 PM 78.8 °F - 77.0 °F 94% 29.94 in 10.0 mi SE 5.8 mph - N/A   Clear
10:55 PM 78.8 °F - 77.0 °F 94% 29.94 in 10.0 mi SE 5.8 mph - N/A   Clear
11:15 PM 78.8 °F - 77.0 °F 94% 29.93 in 10.0 mi SE 8.1 mph - N/A   Clear
11:35 PM 78.8 °F - 77.0 °F 94% 29.93 in 10.0 mi SSE 8.1 mph - N/A   Clear
11:55 PM 78.8 °F - 77.0 °F 94% 29.93 in 10.0 mi SSE 8.1 mph - N/A   Clear